Lapse_Rate
6.2 5.9 5.6 5.7 5.8 5.8 5.9 5.8 5.6 5.9 6.1 5.4 5.3 5.1 5.4 5.3 5.2 5.0 5.9 6.2 6.8 7.1 7.1 6.5 5.9 6.2 6.9 7.1 6.6 6.7 6.7 6.7 6.5 6.4 6.3 6.4 6.4 6.2 6.0 6.2 6.2 6.3 5.8 5.3
5.3 5.2 5.3 5.6 5.1 5.1 5.2 5.6 5.3 5.5 5.7 5.5 5.1 4.8 5.4 5.4 5.7 6.0 6.1 6.5 6.5 6.7 6.8 6.5 6.0 6.6 6.9 6.7 6.7 6.7 6.6 6.5 6.4 6.4 6.3 6.3 6.3 6.1 6.0 6.0 6.1 6.1 6.0 5.7
5.3 5.2 5.6 5.2 5.1 5.0 4.9 4.9 5.0 5.1 5.4 5.1 4.9 4.5 5.5 6.5 6.3 5.8 5.9 5.9 6.4 6.7 6.6 6.4 6.9 6.9 6.6 6.6 6.4 6.4 6.3 6.3 6.3 6.3 6.3 6.3 6.3 6.1 5.9 5.9 6.0 6.0 6.0 5.8
5.0 5.4 5.1 5.1 4.9 5.1 4.9 5.2 5.3 5.2 5.2 4.8 5.0 4.4 5.5 5.4 5.6 5.4 6.0 6.1 6.4 6.3 6.1 6.8 6.8 6.5 6.5 6.2 6.0 6.1 6.1 6.1 6.2 6.3 6.3 6.5 6.4 6.1 5.9 6.0 6.0 6.2 6.4 6.3
4.9 5.1 5.3 4.9 5.2 5.4 5.3 5.4 5.3 5.2 5.0 4.9 4.8 4.6 4.3 6.1 6.0 5.7 5.7 6.2 6.5 6.8 7.0 6.6 6.7 6.4 6.1 6.0 6.2 6.3 6.4 6.3 6.3 6.4 6.3 6.3 6.3 6.2 6.0 6.0 6.0 5.9 5.8 5.7
5.1 4.7 4.8 4.9 4.9 5.2 5.3 5.4 5.4 5.3 5.3 4.6 4.6 4.9 4.4 5.1 6.0 6.5 6.2 6.0 6.5 6.8 6.8 6.5 6.2 6.2 6.5 6.7 6.6 6.5 6.3 6.2 6.2 6.2 6.1 6.0 6.0 5.9 5.8 5.7 5.7 5.6 5.5 5.5
5.1 4.9 4.7 5.1 4.9 4.9 5.3 5.3 5.3 4.7 4.2 3.8 5.6 5.1 4.5 5.6 5.6 5.6 5.7 5.7 6.7 6.5 6.3 6.0 6.1 6.4 6.7 6.6 6.3 6.1 6.0 6.0 6.0 5.8 5.7 5.7 5.6 5.6 5.6 5.6 5.6 5.6 5.5 5.4
5.1 4.9 4.7 4.7 5.0 5.2 5.3 5.5 5.6 5.1 4.9 5.3 6.3 5.1 4.9 5.4 5.8 5.8 5.8 5.9 6.2 6.4 6.2 6.1 6.3 6.5 6.1 6.2 6.3 5.9 5.7 5.7 5.6 5.4 5.4 5.6 5.6 5.7 5.6 5.6 5.5 5.5 5.5 5.6
5.3 5.5 5.7 5.5 5.9 5.7 5.2 5.2 5.6 6.3 6.1 5.4 5.8 5.4 5.6 5.5 5.7 5.7 5.9 5.9 6.0 6.0 6.2 6.1 6.1 6.2 6.3 6.4 6.1 5.8 5.6 5.4 5.2 5.1 5.2 5.4 5.6 5.7 5.7 5.6 5.6 5.7 5.7 5.9
6.3 6.0 5.8 5.9 5.7 6.0 6.0 6.3 6.0 6.0 5.6 5.0 5.6 6.0 5.7 5.9 5.9 6.0 5.8 5.8 5.7 5.7 6.1 6.1 6.0 6.2 6.1 6.1 6.0 5.7 5.4 5.2 5.3 5.3 5.3 5.4 5.5 5.6 5.7 5.8 5.9 6.0 6.1 6.3
6.5 6.4 5.9 5.8 5.5 6.1 5.9 6.0 6.0 6.5 6.6 6.2 5.7 6.1 6.2 6.4 6.6 6.4 6.2 5.8 6.0 6.4 6.4 6.1 5.9 6.1 6.3 6.2 5.9 5.6 5.5 5.5 5.5 5.4 5.4 5.4 5.5 5.6 6.0 6.4 6.3 6.3 6.5 6.8
6.4 6.8 6.4 6.4 6.6 6.8 6.6 6.6 6.6 6.7 6.0 6.2 6.5 5.7 6.2 6.4 6.9 6.2 5.7 5.8 6.1 6.3 6.3 6.1 5.9 6.0 6.0 6.3 6.2 6.0 5.8 5.6 5.5 5.4 5.5 5.7 6.1 6.6 6.8 6.7 6.7 6.7 6.6 6.5
6.9 6.8 6.7 6.4 6.3 5.8 6.2 6.3 6.3 6.4 6.9 7.0 6.5 5.5 6.0 6.3 6.7 6.5 6.4 6.4 6.5 6.2 6.0 5.9 5.9 6.0 6.2 6.2 6.1 6.3 6.2 5.8 5.7 5.9 6.4 6.8 6.8 6.7 6.7 6.8 6.8 6.7 6.5 6.4
7.3 7.4 7.1 7.1 6.9 7.2 6.7 6.7 6.9 7.0 7.1 6.8 6.7 5.7 5.9 6.1 6.5 6.5 6.7 6.7 6.5 6.3 6.1 6.1 6.5 6.3 6.0 6.3 6.3 6.1 5.9 5.9 6.0 6.3 6.7 6.8 6.6 6.6 6.6 6.6 6.6 6.4 6.4 6.5
7.3 6.8 6.8 7.0 7.1 7.7 7.1 6.9 7.2 7.3 6.8 6.4 5.9 6.6 5.8 6.3 6.7 6.7 6.4 6.2 6.2 6.4 6.6 6.9 6.7 6.5 6.6 6.5 6.3 6.1 6.1 6.1 6.3 6.6 6.8 6.8 6.7 6.6 6.5 6.4 6.3 6.2 6.2 6.2
7.4 7.3 7.2 6.9 6.9 6.9 7.2 7.5 7.6 6.2 6.3 6.6 6.3 6.1 6.2 6.5 6.6 6.6 7.0 6.9 6.6 6.2 6.6 7.3 6.8 6.8 6.7 6.6 6.7 6.6 6.5 6.5 6.5 6.6 6.6 6.6 6.6 6.7 6.6 6.4 6.2 6.1 6.3 6.5
7.7 7.4 7.2 7.1 7.3 7.0 7.2 6.9 7.1 7.7 7.3 6.7 6.5 6.8 7.1 6.9 6.9 7.0 7.0 7.3 6.7 6.7 7.0 7.5 7.3 7.2 7.1 7.0 7.0 6.9 6.8 6.7 6.6 6.6 6.5 6.4 6.3 6.2 6.3 6.0 6.1 6.4 6.6 6.6
7.7 7.6 7.3 7.1 7.0 7.2 7.4 7.5 7.5 7.5 7.7 7.8 7.5 7.1 6.9 7.0 7.4 7.5 6.9 7.0 7.1 6.8 7.2 7.9 7.9 7.6 7.3 7.2 7.1 7.2 7.0 6.6 6.4 6.4 6.3 6.3 6.4 6.4 6.2 6.2 6.5 6.4 6.4 6.6
7.3 7.2 7.3 7.4 7.3 7.4 7.4 7.7 7.6 7.5 7.9 8.1 8.0 7.9 8.0 7.7 7.5 7.4 7.3 7.7 7.8 8.0 7.4 7.6 7.7 7.6 7.9 7.6 7.3 7.0 6.8 6.5 6.4 6.2 6.3 6.3 6.4 6.2 6.4 6.3 6.5 6.5 6.5 6.4
7.3 7.1 7.1 7.3 7.4 7.2 7.5 7.7 7.9 7.8 7.7 7.9 8.0 8.0 8.2 8.5 7.8 8.1 8.6 8.3 8.4 8.2 8.0 7.8 7.9 7.9 7.6 7.2 7.0 6.9 6.6 6.5 6.3 6.2 6.3 6.5 6.3 6.1 6.3 6.3 6.3 6.5 6.6 6.6
7.0 6.6 6.4 6.8 7.3 7.3 8.0 7.8 7.8 7.5 7.7 7.9 8.0 8.0 8.1 8.2 8.3 8.3 8.1 7.9 8.1 8.3 8.2 8.2 8.0 7.9 7.7 7.5 7.2 6.8 6.4 6.3 6.2 6.2 6.4 6.7 6.5 6.3 6.2 6.5 6.6 6.5 6.5 6.6
7.4 6.6 6.5 6.5 6.8 7.0 8.2 7.7 7.4 7.7 7.7 8.1 8.2 8.1 8.1 8.2 8.1 8.4 8.3 8.2 8.5 8.7 8.5 8.2 8.0 8.0 7.6 7.3 7.2 6.6 6.2 6.2 6.2 6.4 6.6 6.7 6.7 5.8 6.3 6.4 6.4 6.5 6.5 6.6
6.7 6.8 7.3 7.4 7.5 7.8 7.9 7.8 7.6 7.6 7.7 7.9 7.9 7.7 8.2 8.2 8.3 8.3 8.1 8.0 8.0 8.0 8.0 8.1 7.9 7.8 7.6 7.3 6.9 6.4 6.4 6.3 6.4 6.6 6.6 6.7 6.2 5.9 5.8 6.2 6.5 6.5 6.4 6.6
7.5 7.7 7.6 7.6 7.6 7.6 7.8 7.9 7.9 8.0 7.7 7.7 7.6 7.7 7.7 7.9 8.0 8.3 8.0 7.8 7.9 7.8 7.8 7.8 7.9 7.8 7.5 7.2 6.8 6.3 6.2 6.6 6.6 6.4 6.4 6.4 6.2 6.1 5.8 6.4 6.5 6.3 6.3 6.5
7.7 7.6 7.5 7.5 7.6 7.7 7.8 7.9 8.3 8.4 8.3 8.2 8.0 7.7 7.8 7.8 7.5 7.5 7.7 7.6 7.6 7.5 7.5 7.6 7.6 7.7 7.4 7.2 6.7 6.5 6.4 6.8 6.5 6.5 6.4 6.2 6.2 5.5 6.1 6.2 6.1 6.0 6.2 6.2
7.9 7.9 7.8 7.6 7.9 7.9 8.0 8.1 8.7 8.6 8.5 8.3 8.2 8.1 8.0 7.8 7.7 8.0 7.5 7.4 7.4 7.3 7.1 7.1 7.4 7.6 7.4 7.2 6.5 6.5 6.8 6.5 6.4 6.4 6.3 6.2 5.6 6.0 6.0 5.9 5.9 6.0 5.9 6.0
Wind_Speed
8 5 12 11 12 9 10 9 8 7 8 6 8 9 10 9 9 10 10 9 9 9 8 7 5 8 9 9 9 9 9 9 6 3 3 3 4 3 4 7 13 13 13 15
6 14 10 9 8 11 12 12 10 7 5 2 5 11 15 14 15 14 10 9 9 8 8 5 8 9 8 8 8 8 7 8 7 5 4 3 4 4 3 4 8 12 12 13
15 1 17 13 12 13 13 14 8 7 6 5 4 14 19 17 23 16 11 9 7 8 8 5 8 9 9 8 7 7 7 7 8 10 5 3 1 1 1 3 5 8 14 14
13 18 11 15 14 14 15 9 13 11 6 5 6 6 12 7 3 8 13 13 10 8 6 7 8 8 7 6 7 7 7 9 10 11 9 4 3 3 1 3 5 2 0 2
8 12 19 13 15 8 6 5 9 8 6 6 12 6 5 11 9 8 8 8 9 8 8 8 8 7 6 5 5 6 7 7 8 9 9 7 9 5 5 5 9 10 8 14
12 3 7 16 6 9 6 3 3 1 2 8 12 10 7 10 10 8 5 8 9 8 8 8 7 6 6 5 5 6 6 7 9 10 11 11 10 8 7 9 7 7 7 7
10 13 2 2 11 6 5 8 2 2 2 6 9 12 15 7 4 0 11 9 8 7 7 7 7 6 5 5 6 5 7 7 9 11 12 10 11 11 11 9 7 8 7 7
10 6 16 9 9 10 13 13 5 7 5 3 13 9 6 6 8 7 8 8 8 8 7 7 7 6 6 5 6 6 7 7 7 8 11 11 11 8 7 9 7 7 6 6
9 7 6 14 7 16 10 17 13 6 2 2 5 6 8 6 5 6 7 7 8 8 8 7 7 6 6 6 5 6 6 6 7 7 8 8 8 9 8 9 7 6 7 7
2 1 9 7 6 7 5 6 9 3 4 4 6 8 10 4 7 8 8 9 9 9 9 8 7 7 5 5 5 6 6 6 6 7 6 6 6 7 7 7 8 7 7 7
5 2 2 8 10 15 10 6 6 5 6 4 4 5 3 6 12 14 11 8 9 9 8 8 7 7 6 5 5 5 5 6 5 5 5 6 6 6 7 7 7 6 6 7
9 4 5 11 5 12 16 16 15 7 8 5 12 17 5 7 4 6 8 7 8 9 8 8 8 8 7 6 5 5 5 6 5 5 5 6 6 6 6 6 7 6 7 7
13 5 3 2 4 7 9 15 18 17 1 14 10 13 11 8 3 4 6 8 7 8 8 8 8 8 8 7 7 6 5 5 5 5 5 5 5 5 6 6 6 7 7 8
15 5 13 17 13 8 10 14 19 18 11 18 17 25 18 13 6 6 7 8 9 9 10 9 8 8 8 7 7 6 5 5 5 5 5 5 5 5 5 6 6 7 6 8
10 8 13 17 13 10 10 16 20 19 24 17 23 18 26 19 12 8 11 9 9 13 13 12 13 10 9 8 7 6 6 5 5 5 5 4 4 4 5 6 6 6 6 7
7 5 5 8 15 16 18 16 13 22 23 18 24 25 26 15 8 9 14 16 17 14 16 17 13 12 12 11 9 8 7 6 6 5 5 5 5 4 4 5 5 5 6 6
9 6 6 13 11 12 13 21 23 19 18 20 21 26 20 22 23 18 17 12 18 19 19 19 20 16 13 13 12 9 8 6 6 6 5 4 5 5 4 4 5 5 6 5
8 11 7 10 2 16 12 9 15 25 24 23 22 21 25 27 23 11 8 9 15 18 21 17 15 15 12 11 10 9 8 7 6 6 6 5 5 5 4 4 5 5 4 5
2 3 7 9 13 13 9 11 16 13 23 19 22 28 30 24 14 18 21 13 13 16 16 17 15 12 12 13 11 10 9 8 8 7 8 6 6 4 3 4 4 3 4 4
10 4 7 5 9 12 18 18 14 3 11 22 18 19 22 25 14 17 25 9 12 10 9 12 14 15 14 11 11 11 10 9 9 9 8 7 6 5 5 3 4 2 3 5
9 8 16 13 10 4 9 7 4 7 10 3 3 7 18 14 12 20 3 4 4 6 15 15 15 13 12 12 11 11 10 10 9 8 7 6 4 3 4 3 2 2 4 3
11 8 6 7 8 14 9 2 9 5 3 0 1 2 4 5 8 2 5 8 9 14 14 12 12 11 11 11 10 10 10 9 8 7 7 6 3 3 4 3 2 2 2 2
6 7 4 7 6 4 3 5 3 4 5 5 4 5 4 5 4 6 5 7 7 10 11 10 12 12 10 10 9 10 10 8 6 7 6 5 5 4 2 4 3 2 2 3
5 7 11 12 12 13 9 6 9 7 8 5 4 3 4 6 6 7 8 7 8 8 8 8 11 11 9 7 9 10 9 7 7 7 7 7 5 4 2 3 3 3 2 3
8 4 14 14 7 7 9 7 3 5 5 4 1 3 5 8 7 7 7 9 9 10 9 10 10 10 10 9 9 8 8 8 7 6 5 6 4 4 3 4 2 3 3 2
10 13 7 10 5 7 8 3 4 6 6 6 5 4 4 8 8 9 7 6 9 10 10 10 10 11 10 10 9 7 6 6 7 7 5 3 4 3 3 2 2 5 4 3
Wind_Direction
200 199 206 197 215 232 268 277 285 245 245 179 228 261 274 278 273 223 223 232 240 252 271 261 59 59 43 29 11 357 341 323 310 287 222 208 212 225 211 189 187 197 214 247
194 227 217 222 220 222 242 259 265 290 313 98 294 273 274 266 261 254 246 248 251 257 277 290 76 63 47 30 12 345 323 311 303 296 263 198 193 214 202 171 171 189 207 227
216 240 209 233 220 231 231 240 248 259 292 209 275 271 252 249 241 247 245 237 239 246 264 75 70 63 47 26 358 335 334 333 342 333 291 278 208 349 33 175 209 204 202 212
228 233 197 219 227 210 232 213 236 248 242 246 197 283 297 277 246 220 220 230 220 226 118 88 68 60 48 14 354 348 17 12 2 359 356 279 180 197 273 351 38 86 273 241
206 196 222 219 226 221 237 294 254 225 251 271 258 279 264 231 258 243 206 200 203 110 107 97 89 87 70 33 10 359 31 24 15 27 29 38 57 53 47 50 59 54 50 46
238 28 217 227 225 217 164 87 46 355 258 246 230 230 228 235 212 218 196 129 122 118 105 97 96 94 72 34 24 16 40 34 32 36 41 53 59 53 55 45 47 49 43 34
218 223 183 224 202 172 222 162 181 222 216 236 203 208 243 302 328 38 186 136 126 124 129 132 122 92 72 47 32 37 37 38 37 44 40 42 56 58 53 53 49 44 42 31
185 211 211 169 218 190 203 201 177 199 199 231 206 235 242 208 245 170 130 147 139 140 126 123 128 125 103 70 47 51 42 37 40 48 44 38 40 51 48 43 48 47 32 35
184 230 156 176 186 176 189 215 214 327 150 129 241 261 304 167 170 133 139 139 155 159 141 149 138 122 110 92 66 60 61 50 36 51 54 47 42 50 51 45 46 48 35 35
167 120 182 179 186 238 186 154 202 208 241 232 240 246 239 203 186 194 193 188 177 151 152 150 144 129 112 112 93 72 73 69 50 52 53 55 53 54 58 54 45 40 42 34
155 131 208 147 199 189 200 210 216 185 214 213 248 235 195 238 214 191 204 189 170 161 159 155 148 136 129 114 101 92 79 76 57 67 61 63 58 53 56 57 45 40 44 34
189 155 173 207 198 223 217 214 205 206 220 247 257 261 43 99 94 157 173 174 163 157 160 156 144 145 155 148 131 118 101 96 67 66 68 57 54 61 65 59 54 37 47 44
181 219 157 215 227 229 218 225 227 232 176 222 224 256 209 248 7 111 151 154 166 158 157 159 160 171 171 165 151 130 115 98 86 80 72 67 61 61 61 62 54 51 49 44
160 190 212 225 224 140 207 218 223 226 239 244 241 256 261 266 254 190 184 192 182 171 176 178 176 188 169 155 150 137 127 116 104 97 89 74 65 66 66 61 63 59 55 60
154 214 229 242 260 269 227 212 218 229 232 230 250 244 258 258 261 221 198 201 184 191 189 191 195 187 165 156 144 140 138 126 127 115 103 95 75 63 65 66 60 57 53 61
171 232 187 256 250 244 256 262 250 232 244 255 253 258 259 274 264 238 229 199 205 195 199 202 196 186 172 165 163 160 149 150 132 120 116 110 97 79 72 75 72 71 61 55
180 203 187 244 237 237 253 240 244 254 245 237 246 253 265 262 257 257 255 220 206 201 201 202 198 186 179 173 160 159 148 146 137 134 121 104 103 93 63 70 72 53 64 61
193 198 212 245 262 246 243 241 226 234 241 244 252 259 256 255 262 267 244 205 210 208 209 201 189 183 165 146 142 133 144 148 140 125 125 129 110 105 97 84 83 70 73 67
176 153 232 235 239 259 298 244 221 223 244 240 243 247 255 268 268 266 254 233 225 217 206 196 182 155 131 135 136 145 154 144 143 150 146 136 126 117 113 94 82 56 70 73
189 176 214 202 238 242 243 242 238 247 248 241 244 250 253 260 262 262 264 213 233 192 160 138 131 131 134 136 139 149 156 160 159 154 144 130 139 129 116 97 90 75 76 83
199 214 223 231 244 266 266 214 102 185 239 207 193 268 264 266 251 266 145 45 69 100 119 119 128 137 137 139 145 157 158 166 150 136 129 129 142 119 96 111 108 86 74 82
184 179 203 221 232 247 237 35 203 228 300 289 170 173 315 304 307 355 102 104 109 119 121 125 124 127 134 146 155 154 160 142 139 138 141 140 149 125 135 128 92 78 73 102
243 204 200 183 211 221 228 230 244 169 234 235 220 179 145 274 250 166 140 121 121 129 129 128 130 131 143 154 156 151 138 135 137 140 147 146 138 143 143 99 83 98 61 65
259 225 242 256 260 256 246 233 232 226 234 251 226 208 166 231 195 180 150 151 140 139 134 126 132 140 138 137 136 127 132 130 146 155 156 151 140 132 76 104 100 93 63 60
235 200 239 252 265 298 279 253 4 309 272 251 184 222 246 244 193 176 153 154 149 141 141 143 144 144 137 113 110 115 125 144 159 148 153 147 133 107 105 87 85 94 88 111
228 241 236 247 251 230 243 16 8 350 325 311 279 296 289 275 228 129 118 142 146 142 146 145 144 140 137 126 121 121 140 162 157 157 151 136 120 103 108 112 128 133 110 82